Tracking 23726 objects as of 16-Oct-2021
HD Live streaming from Space Station
objects crossing your sky now

ASTRO H DEB

Track ASTRO H DEB now!
10-day predictions


NORAD ID: 42675
Int'l Code: 2016-012T
Perigee: 502.4 km
Apogee: 509.9 km
Inclination: 31.0 °
Period: 94.6 minutes
Semi major axis: 6877 km
RCS: Unknown
Launch date: February 17, 2016
Source: Japan (JPN)
Launch site: TANEGASHIMA SPACE CENTER (TNSTA)

Note: This is SATELLITE DEBRIS
aabbcc
Your satellite tracking list
Your tracking list is empty




NASA's NSSDC Master Catalog

Two Line Element Set (TLE):
1 42675U 16012T   21262.76211643  .00011655  00000-0  48783-3 0  9998
2 42675  31.0123 134.5578 0005465 267.9589  92.0427 15.22272764256437
Source of the keplerian elements: AFSPC